Change the Weather History Date:

Saturday, November 27, 2010

  Actual Average Record
Temperature  
Mean Temperature 34 °F -  
Max Temperature 46 °F 48 °F 73 °F (1949)
Min Temperature 23 °F 21 °F 8 °F (1948)
Degree Days  
Heating Degree Days 30    
Moisture  
Dew Point 25 °F    
Average Humidity 66    
Maximum Humidity 81    
Minimum Humidity 37    
Precipitation  
Precipitation 0.02 in - - ()
Sea Level Pressure  
Sea Level Pressure 29.71 in    
Wind  
Wind Speed 6 mph (West)    
Max Wind Speed 18 mph    
Max Gust Speed 29 mph    
Visibility 9 miles    
Events Rain    
Averages and records for this station are not official NWS values.
T = Trace of Precipitation, MM = Missing Value Source: NWS Daily Summary

Daily Weather History Graph

Daily Weather History Graph

Search for Another Location

Airport or City:

Trip Planner

Search our weather history database for the weather conditions in past years. The results will help you decide how hot, cold, wet, or windy it might be!

Date:

Astronomy

Nov. 27, 2010 Rise Set
Actual Time 6:51 AM PST 4:32 PM PST
Civil Twilight 6:22 AM PST 5:02 PM PST
Nautical Twilight 5:49 AM PST 5:35 PM PST
Astronomical Twilight 5:16 AM PST 6:07 PM PST
Moon 10:57 PM PST 11:34 AM PST
Length of Visible Light 10h 40m
Length of Day
9h 41m
Waning Gibbous, 62% of the Moon is Illuminated
Nov 27
Waning Gibbous
Nov 28
Last Quarter
Dec 5
New
Dec 13
First Quarter
Dec 21
Full

Hourly Weather History & Observations

Time (PST) Temp. Windchill Dew Point Humidity Pressure Visibility Wind Dir Wind Speed Gust Speed Precip Events Conditions
12:56 AM 23.0 °F 18.4 °F 16.0 °F 74% 29.87 in - ESE 3.5 mph - N/A   Clear
1:56 AM 24.1 °F 19.7 °F 17.1 °F 75% 29.86 in - SW 3.5 mph - N/A   Clear
2:56 AM 23.0 °F 17.0 °F 18.0 °F 81% 29.81 in 10.0 mi SSE 4.6 mph - N/A   Clear
3:56 AM 25.0 °F 18.1 °F 17.1 °F 72% 29.80 in 10.0 mi North 5.8 mph - N/A   Clear
4:56 AM 24.1 °F 15.2 °F 16.0 °F 71% 29.78 in 10.0 mi ENE 8.1 mph - N/A   Clear
5:56 AM 25.0 °F 18.1 °F 18.0 °F 75% 29.78 in 10.0 mi NNE 5.8 mph - N/A   Partly Cloudy
6:56 AM 27.0 °F 18.7 °F 17.1 °F 66% 29.77 in 10.0 mi ENE 8.1 mph - N/A   Mostly Cloudy
7:56 AM 28.0 °F - 19.0 °F 69% 29.75 in 10.0 mi Calm Calm - N/A   Mostly Cloudy
8:56 AM 32.0 °F - 19.9 °F 61% 29.75 in 10.0 mi Calm Calm - N/A   Mostly Cloudy
9:01 AM 32.0 °F - 19.9 °F 61% 29.75 in 10.0 mi Calm Calm - N/A   Mostly Cloudy
9:56 AM 37.4 °F 33.8 °F 19.9 °F 49% 29.75 in 10.0 mi NE 4.6 mph - N/A   Mostly Cloudy
10:56 AM 43.0 °F 39.5 °F 18.0 °F 37% 29.68 in 10.0 mi NE 5.8 mph - N/A   Mostly Cloudy
11:56 AM 43.0 °F 41.3 °F 19.0 °F 38% 29.68 in 10.0 mi WSW 3.5 mph - N/A   Mostly Cloudy
12:14 PM 42.8 °F 36.6 °F 24.8 °F 49% 29.73 in 8.0 mi South 11.5 mph 24.2 mph 0.00 in Rain Light Rain
12:17 PM 42.8 °F 36.6 °F 28.4 °F 57% 29.73 in 8.0 mi South 11.5 mph 24.2 mph 0.00 in   Unknown
12:42 PM 44.6 °F 40.7 °F 26.6 °F 49% 29.70 in 8.0 mi SE 6.9 mph - 0.00 in   Mostly Cloudy
12:56 PM 44.1 °F 39.5 °F 27.0 °F 51% 29.64 in 10.0 mi SE 8.1 mph - 0.00 in   Mostly Cloudy
1:56 PM 44.1 °F 42.5 °F 28.9 °F 55% 29.64 in 10.0 mi West 3.5 mph - N/A   Mostly Cloudy
2:56 PM 46.9 °F - 32.0 °F 56% 29.60 in 10.0 mi SSE 6.9 mph - 0.00 in   Mostly Cloudy
3:56 PM 45.0 °F 41.2 °F 30.0 °F 56% 29.60 in 10.0 mi SSE 6.9 mph - N/A   Mostly Cloudy
4:16 PM 39.2 °F 31.2 °F 33.8 °F 81% 29.66 in 7.0 mi West 13.8 mph 28.8 mph 0.01 in Rain Rain
4:27 PM 39.2 °F 34.2 °F 33.8 °F 81% 29.66 in 6.0 mi WSW 6.9 mph - 0.02 in Rain Light Rain
4:47 PM 39.2 °F 30.5 °F 33.8 °F 81% 29.67 in 5.0 mi NW 16.1 mph 21.9 mph 0.02 in   Haze
4:56 PM 39.0 °F 31.0 °F 30.9 °F 73% 29.62 in 9.0 mi NW 13.8 mph 25.3 mph 0.02 in Rain Light Rain
5:56 PM 39.0 °F 32.3 °F 32.0 °F 76% 29.62 in 6.0 mi West 10.4 mph - 0.00 in   Haze
6:56 PM 37.9 °F 30.5 °F 30.9 °F 76% 29.62 in 10.0 mi West 11.5 mph - N/A   Overcast
7:56 PM 35.1 °F 24.5 °F 28.9 °F 78% 29.65 in - NW 18.4 mph 21.9 mph 0.00 in   Overcast
8:56 PM 34.0 °F 28.0 °F 28.0 °F 79% 29.66 in - West 6.9 mph - 0.00 in   Partly Cloudy
9:56 PM 34.0 °F 26.6 °F 26.1 °F 73% 29.67 in 10.0 mi WNW 9.2 mph - N/A   Overcast
10:56 PM 34.0 °F 25.5 °F 27.0 °F 75% 29.68 in - West 11.5 mph - N/A   Overcast
11:56 PM 34.0 °F 26.6 °F 25.0 °F 70% 29.70 in 10.0 mi NW 9.2 mph - N/A   Mostly Cloudy